2018-046D

Last updated on Mon Aug 13 2018 00:15:07 GMT+0000 (Coordinated Universal Time)

1 43557U 18046D 18224.61933733 -.00000053 00000-0 11046-4 0 9990 2 43557 51.6434 102.8707 0009286 48.4194 311.7575 15.27671895 4092
UTC large
Height (km)
Speed (km/s)
/
Latitude / Longitude
Inclination (degrees)
Orbital Period (minutes)
Azimuth
Elevation
Range (km)
Doppler Factor

Next 0 passes for location: London (51.5072 / 0.1276)

Sorry there are no passes over London.